Meteo pe oră la Dziekanowice

Astăzi, 3 Martie, Miercuri

Timp Temperatura Precipitaţii Vânt Presiune Umiditate
00:00 +4°C° 0 mm 1 m/s 755 mmHg 85%
01:00 +4°C° 0 mm 1 m/s 754 mmHg 87%
02:00 +4°C° 0 mm 1 m/s 754 mmHg 87%
03:00 +3°C° 0 mm 1 m/s 754 mmHg 87%
04:00 +3°C° 0 mm 1 m/s 753 mmHg 87%
05:00 +3°C° 0 mm 1 m/s 753 mmHg 86%
06:00 +3°C° 0 mm 1 m/s 753 mmHg 86%
07:00 +3°C° 0 mm 1 m/s 753 mmHg 86%
08:00 +5°C° 0 mm 1 m/s 753 mmHg 79%
09:00 +7°C° 0 mm 1 m/s 753 mmHg 72%
10:00 +9°C° 0 mm 1 m/s 752 mmHg 65%
11:00 +10°C° 0 mm 1 m/s 752 mmHg 59%
12:00 +12°C° 0 mm 1 m/s 751 mmHg 54%
13:00 +13°C° 0 mm 1 m/s 751 mmHg 49%
14:00 +13°C° 0 mm 1 m/s 750 mmHg 50%
15:00 +13°C° 0 mm 1 m/s 750 mmHg 52%
16:00 +13°C° 0 mm 1 m/s 749 mmHg 53%
17:00 +11°C° 0 mm 1 m/s 749 mmHg 56%
18:00 +9°C° 0 mm 2 m/s 749 mmHg 59%
19:00 +8°C° 0 mm 2 m/s 748 mmHg 63%
20:00 +7°C° 0 mm 3 m/s 748 mmHg 66%
21:00 +7°C° 0 mm 3 m/s 747 mmHg 69%
22:00 +5°C° 0 mm 4 m/s 747 mmHg 73%
23:00 +5°C° 0 mm 4 m/s 747 mmHg 74%

Mâine, 4 Martie, Joi

Timp Temperatura Precipitaţii Vânt Presiune Umiditate
00:00 +4°C° 0 mm 4 m/s 746 mmHg 76%
01:00 +4°C° 0 mm 4 m/s 746 mmHg 78%
02:00 +4°C° 0 mm 4 m/s 745 mmHg 78%
03:00 +3°C° 0 mm 4 m/s 745 mmHg 79%
04:00 +3°C° 0 mm 4 m/s 744 mmHg 80%
05:00 +3°C° 0 mm 4 m/s 744 mmHg 79%
06:00 +2°C° 0 mm 5 m/s 744 mmHg 79%
07:00 +3°C° 0 mm 5 m/s 743 mmHg 78%
08:00 +5°C° 0 mm 5 m/s 743 mmHg 74%
09:00 +7°C° 0 mm 6 m/s 743 mmHg 71%
10:00 +8°C° 0 mm 7 m/s 742 mmHg 67%
11:00 +9°C° 0 mm 7 m/s 742 mmHg 64%
12:00 +10°C° 0 mm 7 m/s 742 mmHg 61%
13:00 +11°C° 0 mm 7 m/s 741 mmHg 58%
14:00 +10°C° 0 mm 6 m/s 741 mmHg 59%
15:00 +10°C° 0 mm 6 m/s 740 mmHg 60%
16:00 +10°C° 0 mm 5 m/s 740 mmHg 61%
17:00 +9°C° 0.3 mm 5 m/s 740 mmHg 69%
18:00 +8°C° 0.3 mm 4 m/s 740 mmHg 76%
19:00 +8°C° 0.3 mm 3 m/s 740 mmHg 84%
20:00 +7°C° 0.9 mm 3 m/s 740 mmHg 85%
21:00 +5°C° 0.9 mm 3 m/s 739 mmHg 86%
22:00 +4°C° 0.9 mm 3 m/s 739 mmHg 88%
23:00 +3°C° 0.3 mm 3 m/s 739 mmHg 88%

Poimâine, 5 Martie, Vineri

Timp Temperatura Precipitaţii Vânt Presiune Umiditate
00:00 +3°C° 0.3 mm 4 m/s 739 mmHg 89%
01:00 +1°C° 0.3 mm 4 m/s 739 mmHg 90%
02:00 +1°C° 0.9 mm 3 m/s 739 mmHg 92%
03:00 0°C° 0.9 mm 3 m/s 739 mmHg 95%
04:00 0°C° 0.9 mm 3 m/s 739 mmHg 97%
05:00 -1°C° 0.7 mm 3 m/s 740 mmHg 95%
06:00 -2°C° 0.7 mm 4 m/s 741 mmHg 93%
07:00 -2°C° 0.7 mm 4 m/s 741 mmHg 91%
08:00 -2°C° 0.1 mm 4 m/s 742 mmHg 87%
09:00 -2°C° 0.1 mm 4 m/s 742 mmHg 83%
10:00 -1°C° 0.1 mm 4 m/s 743 mmHg 79%
11:00 -1°C° 0 mm 4 m/s 743 mmHg 71%
12:00 0°C° 0 mm 4 m/s 743 mmHg 64%
13:00 +1°C° 0 mm 4 m/s 744 mmHg 56%
14:00 0°C° 0 mm 4 m/s 744 mmHg 56%
15:00 0°C° 0 mm 4 m/s 744 mmHg 55%
16:00 0°C° 0 mm 4 m/s 745 mmHg 55%
17:00 0°C° 0 mm 3 m/s 745 mmHg 59%
18:00 0°C° 0 mm 3 m/s 746 mmHg 63%
19:00 -1°C° 0 mm 2 m/s 747 mmHg 67%
20:00 -1°C° 0 mm 2 m/s 747 mmHg 68%
21:00 -2°C° 0 mm 2 m/s 748 mmHg 68%
22:00 -2°C° 0 mm 2 m/s 748 mmHg 69%
23:00 -2°C° 0 mm 2 m/s 748 mmHg 69%

6 Martie, Sâmbătă

Timp Temperatura Precipitaţii Vânt Presiune Umiditate
00:00 -2°C° 0 mm 2 m/s 749 mmHg 70%
01:00 -2°C° 0 mm 2 m/s 749 mmHg 70%
02:00 -2°C° 0 mm 2 m/s 749 mmHg 71%
03:00 -2°C° 0 mm 2 m/s 750 mmHg 72%
04:00 -2°C° 0 mm 2 m/s 750 mmHg 72%
05:00 -2°C° 0 mm 3 m/s 750 mmHg 73%
06:00 -2°C° 0 mm 3 m/s 751 mmHg 73%
07:00 -2°C° 0 mm 3 m/s 752 mmHg 73%
08:00 -2°C° 0 mm 3 m/s 752 mmHg 66%
09:00 -1°C° 0 mm 3 m/s 752 mmHg 59%
10:00 0°C° 0 mm 3 m/s 753 mmHg 52%
11:00 0°C° 0 mm 3 m/s 753 mmHg 49%
12:00 +1°C° 0 mm 3 m/s 753 mmHg 46%
13:00 +1°C° 0 mm 3 m/s 753 mmHg 42%
14:00 +1°C° 0 mm 3 m/s 753 mmHg 43%
15:00 +1°C° 0 mm 3 m/s 753 mmHg 43%
16:00 0°C° 0 mm 3 m/s 752 mmHg 44%
17:00 +1°C° 0 mm 2 m/s 753 mmHg 48%
18:00 -1°C° 0 mm 2 m/s 753 mmHg 52%
19:00 -2°C° 0 mm 2 m/s 753 mmHg 56%
20:00 -2°C° 0 mm 2 m/s 753 mmHg 58%
21:00 -2°C° 0 mm 2 m/s 753 mmHg 59%
22:00 -4°C° 0 mm 3 m/s 753 mmHg 60%
23:00 -4°C° 0 mm 3 m/s 752 mmHg 61%

7 Martie, Duminică

Timp Temperatura Precipitaţii Vânt Presiune Umiditate
00:00 -4°C° 0 mm 3 m/s 752 mmHg 61%
01:00 -4°C° 0 mm 4 m/s 752 mmHg 62%
02:00 -4°C° 0 mm 4 m/s 751 mmHg 61%
03:00 -4°C° 0 mm 4 m/s 751 mmHg 61%
04:00 -5°C° 0 mm 5 m/s 750 mmHg 60%
05:00 -4°C° 0 mm 5 m/s 750 mmHg 59%
06:00 -4°C° 0 mm 5 m/s 750 mmHg 57%
07:00 -4°C° 0 mm 5 m/s 749 mmHg 56%
08:00 -3°C° 0 mm 6 m/s 749 mmHg 51%
09:00 -2°C° 0 mm 6 m/s 749 mmHg 46%
10:00 0°C° 0 mm 7 m/s 749 mmHg 41%
11:00 0°C° 0 mm 7 m/s 748 mmHg 40%
12:00 +2°C° 0 mm 7 m/s 747 mmHg 39%
13:00 +3°C° 0 mm 7 m/s 747 mmHg 38%
14:00 +2°C° 0 mm 6 m/s 746 mmHg 41%
15:00 +2°C° 0 mm 6 m/s 746 mmHg 43%
16:00 +2°C° 0 mm 5 m/s 745 mmHg 46%
17:00 +1°C° 0 mm 4 m/s 745 mmHg 51%
18:00 -1°C° 0 mm 4 m/s 745 mmHg 56%
19:00 -2°C° 0 mm 4 m/s 745 mmHg 60%
20:00 -2°C° 0 mm 4 m/s 745 mmHg 61%
21:00 -2°C° 0 mm 4 m/s 745 mmHg 63%
22:00 -3°C° 0 mm 4 m/s 745 mmHg 64%
23:00 -2°C° 0 mm 3 m/s 744 mmHg 64%

8 Martie, Luni

Timp Temperatura Precipitaţii Vânt Presiune Umiditate
00:00 -2°C° 0 mm 3 m/s 744 mmHg 64%
01:00 -2°C° 0 mm 3 m/s 744 mmHg 65%
02:00 -2°C° 0 mm 3 m/s 743 mmHg 65%
03:00 -2°C° 0 mm 3 m/s 743 mmHg 66%
04:00 -2°C° 0 mm 3 m/s 742 mmHg 66%
05:00 -3°C° 0 mm 4 m/s 742 mmHg 66%
06:00 -3°C° 0 mm 4 m/s 742 mmHg 66%
07:00 -3°C° 0 mm 4 m/s 742 mmHg 66%
08:00 -2°C° 0 mm 4 m/s 742 mmHg 64%
09:00 -1°C° 0 mm 5 m/s 742 mmHg 63%
10:00 -1°C° 0 mm 6 m/s 742 mmHg 61%
11:00 +1°C° 0 mm 6 m/s 742 mmHg 63%
12:00 +1°C° 0 mm 6 m/s 742 mmHg 64%
13:00 +1°C° 0 mm 5 m/s 742 mmHg 66%
14:00 +1°C° 0.1 mm 5 m/s 742 mmHg 70%
15:00 0°C° 0.1 mm 4 m/s 742 mmHg 75%
16:00 +1°C° 0.1 mm 3 m/s 743 mmHg 80%
17:00 0°C° 0.1 mm 3 m/s 743 mmHg 80%
18:00 -1°C° 0.1 mm 3 m/s 744 mmHg 80%
19:00 -2°C° 0.1 mm 2 m/s 744 mmHg 79%
20:00 -2°C° 0 mm 2 m/s 744 mmHg 78%
21:00 -3°C° 0 mm 2 m/s 745 mmHg 76%
22:00 -3°C° 0 mm 2 m/s 745 mmHg 75%
23:00 -4°C° 0 mm 2 m/s 746 mmHg 76%
Arată mai mult

Formular de consimțământ

Meteoprog și furnizorii noștri de servicii pot stoca și accesa date personale, precum cookies, identificatori de dispozitiv sau alte tehnologii similare pe dispozitivul dumneavoastră și procesa astfel de date pentru a personaliza conținutul și reclamele, dar și pentru a oferi caracteristici de social media și pentru a analiza traficul.

  • Stocarea și/sau accesarea informațiilor pe dispozitivul dumneavoastră

    Cookies, identificatori de dispozitiv sau alte informații pot fi stocate sau accesate pe dispozitiv în scopurile indicate mai sus.

  • Reclame și conținut personalizat, evaluarea reclamelor și a conținutului, informații despre audiențe și dezvoltarea produselor

    Reclamele și conținutul pot fi personalizate pe baza unui profil. Pot fi adăugate date suplimentare pentru a personaliza mai bine reclamele și conținutul. Performanța reclamelor și conținutului poate fi măsurată. Pot fi obținute informații despre utilizatorii care au văzut reclamele și conținutul. Aceste date pot fi utilizate pentru a dezvolta sau îmbunătăți experiența utilizatorilor, sistemele și software-ul.

Dând clic pe ‘Sunt de acord’, permiteți utilizarea cookie-urilor menționate, a identificatorilor de dispozitiv, balizelor web sau altor tehnologii similare. Setările pot fi modificate din browser-ul dispozitivului dumneavoastră.

În anumite scopuri, interesele legitime pot prima asupra consimțământului. Puteți citi mai multe informații în acest sens în Politica privind Confidențialitatea Datelor și Cookie.